Regional Weather Roundup
Issued by NWS

Home | Current Version | Previous Version | Text Only | Print | Product List | Glossary On
Versions: 1 2 3 4 5 6 7 8 9 10 11 12 13 14 15 16 17 18 19 20 21 22 23 24 25 26 27 28 29 30 31 32 33 34 35 36 37 38 39 40 41 42 43 44 45 46 47 48 49 50
000
ASUS44 KLIX 020505
RWRLA
LOUISIANA WEATHER ROUNDUP
NATIONAL WEATHER SERVICE NEW ORLEANS LA
1100 PM CST SUN MAR 01 2015

NOTE: "FAIR" INDICATES FEW OR NO CLOUDS BELOW 12,000 FEET WITH NO
      SIGNIFICANT WEATHER AND/OR OBSTRUCTIONS TO VISIBILITY.
      SKY/WX - SKY CONDITION AND SIGNIFICANT WEATHER.
      TMP - AIR TEMPERATURE.    DP   - DEWPOINT TEMPERATURE.
      RH  - RELATIVE HUMIDITY.  PRES - PRESSURE.
      HX  - HEAT INDEX.         WCI  - WIND CHILL INDEX.

*  THESE STATIONS ARE NOT NWS OR FAA STATIONS AND ARE NOT UNDER
   NWS QUALITY CONTROL.

LAZ040-048-061>063-065-066-069-020600-
SOUTHEAST LOUISIANA

CITY           SKY/WX    TMP DP  RH WIND       PRES   REMARKS
N.O. AUDUBON     N/A     58  58 100 MISG        N/A
N.O. INTL ARPT CLOUDY    58  57  97 E13G22    30.29S FOG
N.O. LAKEFRONT FOG       58  56  93 E16       30.31S VSB 1
SLIDELL        LGT RAIN  61  60  97 NE7       30.32S
BATON ROUGE    HVY RAIN  62  61  96 E9        30.29R FOG
BOOTHVILLE     FOG       61  61 100 E6        30.30S VSB 1/4
BELLE CHASSE   LGT RAIN  59  56  89 E8        30.29F VSB 3/4
BOGALUSA*      RAIN      61  58  88 E6        30.32F
GALLIANO*      FOG       58  58  98 E3        30.28F VSB 1/4
NEW ROADS*     CLOUDY    63  62  97 E7        30.28S
GONZALES*      LGT RAIN  61  61 100 E3        30.29F
HAMMOND*       LGT RAIN  61  59  94 E7        30.31F
HOUMA*         CLOUDY    63  63  98 NE5       30.27S FOG
PORT FOURCHON* FOG       64  64 100 E6        30.31R VSB 1/4

$$

LAZ041-044-053-054-020600-
SOUTHWEST LOUISIANA

CITY           SKY/WX    TMP DP  RH WIND       PRES   REMARKS
LAKE CHARLES   CLOUDY    63  63 100 NE8       30.24F
LAFAYETTE      CLOUDY    64  63  96 E3        30.27S
PATTERSON      CLOUDY    68  66  94 NE7       30.28R
SALT POINT       N/A     65  65 100 SE6       30.25R
NEW IBERIA     LGT RAIN  65  63  93 E6        30.27S
CHENAULT AIRPK RAIN      63  63  99 NE5       30.25S

$$

LAZ027-028-020600-
CENTRAL LOUISIANA

CITY           SKY/WX    TMP DP  RH WIND       PRES   REMARKS
FORT POLK      CLOUDY    52  52 100 N5        30.28S FOG
ALEXANDRIA INT CLOUDY    51  51 100 N5        30.29S
ALEXANDRIA     CLOUDY    51  49  92 N6        30.30S

$$

LAZ001-002-020600-
NORTHWEST LOUISIANA

CITY           SKY/WX    TMP DP  RH WIND       PRES   REMARKS
SHREVEPORT     LGT RAIN  44  43  96 N5        30.33S FOG
BARKSDALE AFB  LGT RAIN  43  43 100 N3        30.33F
DTN SHREVEPORT RAIN      43  41  93 CALM      30.34S FOG

$$

LAZ014-016-020600-
NORTHEAST LOUISIANA

CITY           SKY/WX    TMP DP  RH WIND       PRES   REMARKS
MONROE         CLOUDY    44  41  89 N5        30.35S
TALLULAH       FOG       47  46  97 N6        30.33R VSB 3/4

$$



USA.gov is the U.S. government's official web portal to all federal, state and local government web resources and services.